[[{"header":{"parameterUnit":"m.s-1","parameterCategory":1,"la1":30.2991,"la2":30.254,"lo1":-89.0895,"lo2":-89.0444,"dx":0.0017,"dy":0.0017,"nx":28,"ny":28,"refTime":"2022-11-19T09:00:00:Z","depth":0,"parameterNumber":2,"parameterNumberName":"U-component_of_WINDS"},"data":[0,0,0,0,0,0,0,0,0,0,0,0,0,0,0,0,0,0,0,0,0,0,0,0,0,0,0,0,0,0,0,0,0,0,0,0,0,0,0,0,0,0,0,0,0,0,0,0,0,0,0,0,0,0,0,0,0,0,-2.4687,-2.4689,0,-2.4848,-2.485,-2.4852,-2.4795,-2.4791,-2.4788,-2.4784,-2.495,-2.4958,-2.4966,0,0,0,0,0,0,0,0,0,0,0,0,0,-2.4331,-2.4338,-2.4687,-2.4689,-2.4691,-2.4848,-2.485,-2.4852,-2.4796,-2.4791,-2.4787,-2.4783,-2.4948,-2.4957,-2.4966,0,0,0,0,0,0,0,0,0,0,0,0,0,-2.4488,-2.434,-2.4687,-2.4682,-2.4683,-2.4847,-2.485,-2.4853,-2.4797,-2.4791,-2.4786,-2.4781,-2.4945,-2.4956,-2.4968,-2.5147,0,0,-2.5003,-2.5008,0,0,0,0,0,0,0,0,-2.4479,-2.4501,-2.468,-2.4682,-2.4684,-2.4796,-2.4785,-2.4951,-2.4798,-2.4753,-2.4784,-2.4778,-2.4903,-2.4918,-2.496,-2.5154,-2.5162,-2.5004,-2.5011,-2.5016,-2.5019,0,0,0,0,0,0,0,-2.4468,-2.4494,-2.4751,-2.4683,-2.4685,-2.4671,-2.4688,-2.4816,-2.4857,-2.4757,-2.4753,-2.4773,-2.4903,-2.4949,-2.4964,-2.5164,-2.5004,-2.5014,-2.5021,-2.5026,-2.5513,-2.5519,0,0,0,0,0,0,-2.4456,-2.4485,-2.4745,-2.4755,-2.4566,-2.4682,-2.4701,-2.4765,-2.4855,-2.4863,-2.4777,-2.477,-2.4932,-2.495,-2.4969,-2.5186,-2.5016,-2.5027,-2.5034,-2.5507,-2.5514,-2.5521,0,0,0,0,0,0,-2.4449,-2.448,-2.4739,-2.4619,-2.4651,-2.4694,-2.4767,-2.4771,-2.4817,-2.487,-2.4877,-2.4817,-2.4928,-2.4953,-2.5103,-2.519,-2.5032,-2.5043,-2.55,-2.5509,-2.5517,-2.5619,0,0,0,0,0,0,-2.4439,-2.4478,-2.4547,-2.4621,-2.4658,-2.4871,-2.4773,-2.4778,-2.4837,-2.4829,-2.4909,-2.4917,-2.4926,-2.5086,-2.5114,-2.5204,-2.5052,-2.5492,-2.5504,-2.5515,-2.5609,-2.5631,-2.565,0,0,0,0,0,-2.4427,-2.4569,-2.4551,-2.4582,-2.4745,-2.4876,-2.4897,-2.4903,-2.4844,-2.4914,-2.4948,-2.4915,-2.5175,-2.5102,-2.5133,-2.5227,-2.5487,-2.5501,-2.5514,-2.5599,-2.5626,-2.5649,0,0,0,0,0,0,-2.4505,-2.4579,-2.4559,-2.473,-2.4797,-2.4866,-2.4954,-2.4932,-2.5017,-2.5006,-2.501,-2.5029,-2.5184,-2.522,-2.5136,-2.5405,-2.5322,-2.5343,-2.5376,-2.5403,-2.5423,-2.5412,-2.5061,0,0,0,0,0,-2.4542,-2.4642,-2.4701,-2.4846,-2.4881,-2.4912,-2.4969,-2.4968,-2.5038,-2.5066,-2.5111,-2.518,-2.5277,-2.5341,-2.5434,-2.5612,-2.5629,-2.5692,-2.5713,-2.5729,-2.5748,-2.5845,-2.5874,-2.5565,-2.5565,-2.5564,0,0,-2.462,-2.4672,-2.4736,-2.4863,-2.4915,-2.5019,-2.4936,-2.5049,-2.5127,-2.5083,-2.5228,-2.5263,-2.534,-2.5505,-2.558,-2.554,-2.5837,-2.5747,-2.5759,-2.5769,-2.5862,-2.5891,-2.5917,-2.5574,-2.5572,-2.5571,0,0,-2.4815,-2.4865,-2.4991,-2.5044,-2.5123,-2.5143,-2.5173,-2.5245,-2.5267,-2.5412,-2.5381,-2.5472,-2.564,-2.5696,-2.5747,-2.5961,-2.5934,-2.5991,-2.61,-2.6195,-2.6219,-2.6241,-2.6319,-2.6347,-2.6008,-2.6009,-2.6009,0,-2.4903,-2.5058,-2.5059,-2.5176,-2.5233,-2.5197,-2.5325,-2.5376,-2.5482,-2.5522,-2.5475,-2.5684,-2.5734,-2.5912,-2.5964,-2.6005,-2.604,-2.5983,-2.6215,-2.6237,-2.6257,-2.6332,-2.6361,-2.6015,-2.6014,-2.6014,-2.6013,0,-2.5162,-2.5269,-2.5362,-2.5465,-2.5532,-2.5653,-2.5674,-2.5741,-2.5733,-2.5757,-2.5905,-2.5962,-2.6066,-2.6107,-2.6101,-2.6285,-2.6258,-2.6213,-2.6131,-2.6294,-2.6364,-2.6392,-2.6025,-2.6022,-2.602,-2.6019,0,0,-2.5414,-2.5514,-2.5549,-2.5595,-2.5678,-2.5761,-2.588,-2.5981,-2.604,-2.6112,-2.6213,-2.6355,-2.6314,-2.6371,-2.637,-2.6453,-2.6621,-2.6399,-2.64,-2.644,-2.6827,-2.6862,-2.6895,-2.6602,-2.6607,-2.6611,-2.6821,0,-2.5618,-2.5828,-2.5833,-2.6026,-2.6126,-2.6091,-2.6195,-2.6257,-2.6282,-2.637,-2.6397,-2.6498,-2.6436,-2.647,-2.655,-2.6583,-2.6699,-2.6568,-2.6697,-2.6701,-2.6682,-2.6931,-2.6969,-2.7165,-2.6849,-2.6853,-2.6857,0,-2.5885,-2.5966,-2.6169,-2.6237,-2.6279,-2.6373,-2.6465,-2.655,-2.6619,-2.6631,-2.6694,-2.6681,-2.6802,-2.6713,-2.6881,-2.6792,-2.6844,-2.6868,-2.6875,-2.689,-2.6791,-2.6955,-2.7227,-2.7257,-2.6899,-2.6896,-2.6893,0,-2.6051,-2.6211,-2.6353,-2.6393,-2.6476,-2.6542,-2.658,-2.6644,-2.6704,-2.6784,-2.6823,-2.6916,-2.6968,-2.704,-2.7052,-2.6985,-2.722,-2.7132,-2.7235,-2.7235,-2.7289,-2.7286,-2.7575,-2.7318,-2.7318,-2.7317,-2.7316,0,-2.628,-2.6406,-2.6429,-2.6517,-2.6657,-2.6659,-2.6797,-2.6829,-2.6886,-2.698,-2.6954,-2.7042,-2.7051,-2.7142,-2.7151,-2.7289,-2.7312,-2.7326,-2.7328,-2.733,-2.7329,-2.7367,-2.7354,-2.7325,-2.7323,-2.7322,-2.732,0,-2.6491,-2.6511,-2.6664,-2.6729,-2.6748,-2.6849,-2.6904,-2.6988,-2.7009,-2.7128,-2.7155,-2.7189,-2.7294,-2.7312,-2.7436,-2.7442,-2.7608,-2.7594,-2.7585,-2.7584,-2.7686,-2.7677,-2.8013,-2.8057,-2.7769,-2.7771,-2.7774,0,-2.6638,-2.6734,-2.6809,-2.6869,-2.691,-2.7008,-2.7069,-2.7074,-2.7138,-2.7223,-2.7297,-2.7399,-2.7482,-2.7651,-2.7687,-2.7781,-2.7771,-2.7881,-2.7785,-2.7784,-2.7775,-2.777,-2.778,-2.7901,-2.7904,-2.7907,-2.7909,0,-2.6896,-2.69,-2.6989,-2.7081,-2.7154,-2.7227,-2.7296,-2.7347,-2.7361,-2.7434,-2.7541,-2.7605,-2.7731,-2.7833,-2.7926,-2.7964,-2.794,-2.7938,-2.7968,-2.7973,-2.7964,-2.7972,-2.7638,-2.7932,-2.7929,-2.7928,-2.7927,-2.7926,-2.708,-2.7164,-2.723,-2.7329,-2.7381,-2.7446,-2.7528,-2.7558,-2.7648,-2.7751,-2.7747,-2.7865,-2.7931,-2.8053,-2.8097,-2.8189,-2.8154,-2.8195,-2.8207,-2.8217,-2.8228,-2.7947,-2.8206,-2.8205,-2.8205,-2.8204,-2.8204,0,-2.7339,-2.7379,-2.747,-2.7567,-2.7645,-2.7613,-2.7687,-2.7754,-2.7858,-2.7921,-2.8002,-2.8125,-2.8223,-2.8266,-2.8362,-2.8428,-2.8419,-2.8453,-2.845,-2.8459,-2.8254,-2.822,-2.8459,-2.8459,-2.8459,-2.8458,-2.8458,-2.8458,-2.7483,-2.7623,-2.7635,-2.7801,-2.784,-2.7955,-2.8,-2.8059,-2.8109,-2.8248,-2.8329,-2.8355,-2.841,-2.851,-2.8599,-2.8608,-2.8646,-2.8686,-2.8691,-2.8499,-2.8473,-2.8449,-2.8417,-2.8694,-2.8694,-2.8889,-2.8891,-2.8892]},{"header":{"parameterUnit":"m.s-1","parameterCategory":1,"la1":30.2991,"la2":30.254,"lo1":-89.0895,"lo2":-89.0444,"dx":0.0017,"dy":0.0017,"nx":28,"ny":28,"refTime":"2022-11-19T09:00:00:Z","depth":0,"parameterNumber":3,"parameterNumberName":"V-component_of_WINDS"},"data":[0,0,0,0,0,0,0,0,0,0,0,0,0,0,0,0,0,0,0,0,0,0,0,0,0,0,0,0,0,0,0,0,0,0,0,0,0,0,0,0,0,0,0,0,0,0,0,0,0,0,0,0,0,0,0,0,0,0,-6.37,-6.3701,0,-6.3794,-6.3795,-6.3796,-6.3724,-6.3721,-6.3718,-6.3715,-6.3805,-6.381,-6.3815,0,0,0,0,0,0,0,0,0,0,0,0,0,-6.3453,-6.3458,-6.37,-6.3702,-6.3703,-6.3794,-6.3795,-6.3796,-6.3724,-6.3721,-6.3717,-6.3713,-6.3803,-6.3809,-6.3815,0,0,0,0,0,0,0,0,0,0,0,0,0,-6.3554,-6.3459,-6.37,-6.3678,-6.3677,-6.3794,-6.3795,-6.3797,-6.3725,-6.3721,-6.3716,-6.3712,-6.3801,-6.3808,-6.3816,-6.3958,0,0,-6.384,-6.3844,0,0,0,0,0,0,0,0,-6.3549,-6.3564,-6.368,-6.368,-6.3679,-6.3743,-6.374,-6.385,-6.3726,-6.3707,-6.3715,-6.3709,-6.3787,-6.3796,-6.3823,-6.3962,-6.3966,-6.3841,-6.3846,-6.3849,-6.3851,0,0,0,0,0,0,0,-6.3542,-6.3559,-6.3737,-6.3682,-6.3681,-6.3661,-6.367,-6.3761,-6.3772,-6.3708,-6.3703,-6.3715,-6.3786,-6.3816,-6.3825,-6.3967,-6.3841,-6.3848,-6.3853,-6.3856,-6.4224,-6.4229,0,0,0,0,0,0,-6.3538,-6.3554,-6.3734,-6.374,-6.3601,-6.3669,-6.368,-6.3727,-6.3771,-6.3773,-6.3719,-6.3712,-6.3805,-6.3816,-6.3828,-6.3996,-6.3849,-6.3857,-6.3861,-6.4219,-6.4225,-6.4231,0,0,0,0,0,0,-6.3533,-6.3555,-6.373,-6.3646,-6.3666,-6.3679,-6.3732,-6.3731,-6.3761,-6.3779,-6.378,-6.3749,-6.3802,-6.3817,-6.3926,-6.3998,-6.386,-6.3867,-6.4213,-6.4221,-6.4228,-6.4333,0,0,0,0,0,0,-6.3526,-6.3553,-6.3609,-6.3648,-6.3671,-6.3829,-6.3736,-6.3736,-6.3776,-6.3767,-6.3807,-6.3809,-6.3799,-6.3915,-6.3934,-6.4006,-6.3873,-6.4207,-6.4217,-6.4226,-6.4323,-6.4343,-6.436,0,0,0,0,0,-6.3517,-6.3634,-6.3612,-6.3634,-6.3742,-6.3834,-6.3847,-6.3835,-6.3782,-6.3837,-6.3848,-6.3808,-6.3987,-6.3926,-6.3948,-6.4023,-6.4202,-6.4214,-6.4225,-6.4315,-6.4339,-6.436,0,0,0,0,0,0,-6.3601,-6.3638,-6.3615,-6.3748,-6.3788,-6.3821,-6.389,-6.3862,-6.3917,-6.3906,-6.3887,-6.3896,-6.4011,-6.4028,-6.396,-6.4161,-6.4086,-6.4102,-6.4147,-6.417,-6.4188,-6.4181,-6.388,0,0,0,0,0,-6.3636,-6.371,-6.3737,-6.3851,-6.3873,-6.3879,-6.3918,-6.3906,-6.3946,-6.3962,-6.3982,-6.4021,-6.4085,-6.4129,-6.4189,-6.4325,-6.4332,-6.4387,-6.4406,-6.4421,-6.4435,-6.4506,-6.4531,-6.4268,-6.4268,-6.4268,0,0,-6.3706,-6.3736,-6.3783,-6.3869,-6.3899,-6.3974,-6.3893,-6.3976,-6.4031,-6.3974,-6.4079,-6.4094,-6.4136,-6.4259,-6.4314,-6.4277,-6.4509,-6.4435,-6.4447,-6.4453,-6.452,-6.4545,-6.4567,-6.4276,-6.4274,-6.4273,0,0,-6.3874,-6.3905,-6.4003,-6.4035,-6.4082,-6.4085,-6.4108,-6.4146,-6.4154,-6.426,-6.4218,-6.4282,-6.4394,-6.4426,-6.4457,-6.4635,-6.4599,-6.4655,-6.4752,-6.4822,-6.4842,-6.4861,-6.4923,-6.4946,-6.4669,-6.4669,-6.4669,0,-6.3956,-6.4069,-6.4056,-6.4143,-6.418,-6.4134,-6.4232,-6.4263,-6.4327,-6.4353,-6.431,-6.445,-6.4475,-6.4604,-6.4648,-6.4675,-6.4699,-6.465,-6.4841,-6.4859,-6.4876,-6.4935,-6.4959,-6.4676,-6.4675,-6.4674,-6.4674,0,-6.4167,-6.4246,-6.4319,-6.4384,-6.443,-6.4521,-6.452,-6.4567,-6.4551,-6.4557,-6.4663,-6.4692,-6.4757,-6.4787,-6.477,-6.4913,-6.4888,-6.4844,-6.4767,-6.4908,-6.4963,-6.4986,-6.4685,-6.4683,-6.4681,-6.4679,0,0,-6.439,-6.4447,-6.4474,-6.4502,-6.455,-6.461,-6.4698,-6.4764,-6.4804,-6.4849,-6.4921,-6.5018,-6.4977,-6.5011,-6.4998,-6.5059,-6.5197,-6.5007,-6.5008,-6.5041,-6.5354,-6.5387,-6.5414,-6.5174,-6.5179,-6.5182,-6.5351,0,-6.4559,-6.4716,-6.4706,-6.4852,-6.4924,-6.4881,-6.4957,-6.4993,-6.5002,-6.5062,-6.5069,-6.5138,-6.5079,-6.5099,-6.5158,-6.5168,-6.526,-6.5156,-6.5239,-6.5242,-6.523,-6.5443,-6.5478,-6.5636,-6.5372,-6.5376,-6.5379,0,-6.4778,-6.4833,-6.4987,-6.5023,-6.5053,-6.5122,-6.5181,-6.524,-6.5279,-6.528,-6.5319,-6.5295,-6.5382,-6.5303,-6.5421,-6.5351,-6.5384,-6.5394,-6.5399,-6.5406,-6.5319,-6.5455,-6.5686,-6.571,-6.5413,-6.541,-6.5408,0,-6.4925,-6.5036,-6.5142,-6.5168,-6.5214,-6.5263,-6.5284,-6.5319,-6.5359,-6.5409,-6.5434,-6.5493,-6.5526,-6.5571,-6.5562,-6.5507,-6.5682,-6.5603,-6.5684,-6.5684,-6.5722,-6.572,-6.5962,-6.5745,-6.5745,-6.5744,-6.5744,0,-6.5114,-6.521,-6.5209,-6.5274,-6.5379,-6.5366,-6.5469,-6.5484,-6.5515,-6.5581,-6.5546,-6.5608,-6.5593,-6.5654,-6.5648,-6.5745,-6.576,-6.5762,-6.5759,-6.5765,-6.5765,-6.5786,-6.5774,-6.5751,-6.5749,-6.5748,-6.5747,0,-6.5296,-6.5299,-6.5412,-6.5446,-6.5457,-6.5533,-6.556,-6.5621,-6.5626,-6.5709,-6.5727,-6.5735,-6.5804,-6.58,-6.5878,-6.5874,-6.5994,-6.5979,-6.5982,-6.5978,-6.6058,-6.6051,-6.6322,-6.6356,-6.6118,-6.612,-6.6122,0,-6.5417,-6.549,-6.5532,-6.5574,-6.5599,-6.5667,-6.5708,-6.5697,-6.574,-6.579,-6.5844,-6.5911,-6.5963,-6.6076,-6.6086,-6.6145,-6.613,-6.6221,-6.6139,-6.6142,-6.613,-6.6126,-6.6132,-6.6237,-6.624,-6.6242,-6.6244,0,-6.5631,-6.5629,-6.569,-6.5752,-6.5802,-6.5849,-6.5892,-6.5928,-6.5921,-6.5971,-6.6043,-6.6084,-6.6164,-6.623,-6.6286,-6.6304,-6.6273,-6.627,-6.6291,-6.6298,-6.6296,-6.6297,-6.6025,-6.6264,-6.6262,-6.626,-6.6259,-6.6258,-6.5785,-6.5847,-6.5887,-6.5955,-6.5987,-6.6028,-6.6087,-6.6099,-6.6159,-6.6225,-6.6214,-6.6294,-6.6329,-6.6402,-6.6426,-6.6486,-6.6453,-6.6485,-6.6493,-6.65,-6.6509,-6.6288,-6.6496,-6.6496,-6.6495,-6.6495,-6.6494,0,-6.5996,-6.6019,-6.6083,-6.6145,-6.6199,-6.6166,-6.6212,-6.6259,-6.633,-6.6367,-6.642,-6.6501,-6.6564,-6.658,-6.664,-6.6685,-6.6672,-6.6701,-6.6698,-6.6702,-6.6536,-6.6511,-6.6711,-6.6711,-6.6711,-6.6711,-6.6711,-6.6711,-6.6112,-6.6216,-6.6218,-6.6336,-6.6357,-6.6437,-6.6466,-6.6502,-6.6532,-6.6625,-6.6678,-6.6688,-6.6716,-6.6778,-6.6834,-6.6836,-6.6859,-6.6895,-6.6891,-6.6736,-6.6714,-6.6693,-6.667,-6.69,-6.69,-6.7053,-6.7054,-6.7055]}]]